Starlink 31960

operational
NORAD ID: 59931 Int'l Des: 2024-106 Owner: SPXS Country: US Constellation: starlink
LEOCIRCULAR

About Starlink 31960

Description loading...

Live Position

Loading 3D Globe...

Upcoming Passes

Altitude History

Altitude vs Time

uPlot chart will show altitude changes over time

Two-Line Element Set

1 59931U 24106K 25348.34777772 -.00002764 00000-0 -90976-4 0 9992
2 59931 43.0036 94.2538 0001593 262.5857 97.4814 15.27565266 87473
Epoch: Dec 14, 2025 • Age: 33 hours

Current Status

Altitude 495.0 km
Velocity 7.62 km/s
Sub-Earth Point -42.31°S, 31.59°E
Launch Date Jun 1, 2024
Age 1.5 years
Type internet

Technical Details

Classification Payload
Mass 730.00 kg
Dry Mass 700.00 kg
Total Mass 730.00 kg
Length 0.30 m
Diameter 4.10 m
Span 29.00 m
Shape Box + pan
Manufacturer SPXS
Bus Type Starlink V2M
Phase Status In Orbit
Owner/State SPXS/US

Large Constellations

Loading constellations...